Weather History for Houghton, MI

Change the Weather History Date:

Sunday, September 29, 2013

  Actual Average Record
Temperature  
Mean Temperature 58 °F -  
Max Temperature 69 °F 56 °F 79 °F (2000)
Min Temperature 46 °F 42 °F 26 °F (1967)
Degree Days  
Heating Degree Days 8    
Growing Degree Days 8 (Base 50)    
Moisture  
Dew Point 44 °F    
Average Humidity 67    
Maximum Humidity 89    
Minimum Humidity 33    
Precipitation  
Precipitation 0.00 in - - ()
Sea Level Pressure  
Sea Level Pressure 29.88 in    
Wind  
Wind Speed 12 mph (WSW)    
Max Wind Speed 24 mph    
Max Gust Speed 38 mph    
Visibility 10 miles    
Events      
Averages and records for this station are not official NWS values.
T = Trace of Precipitation, MM = Missing Value Source: NWS Daily Summary

Daily Weather History Graph

Daily Weather History Graph

Search for Another Location

Airport:

Trip Planner

Search our weather history database for the weather conditions in past years. The results will help you decide how hot, cold, wet, or windy it might be!

Date:

Astronomy

Sep. 29, 2013 Rise Set
Actual Time 7:50 AM EDT 7:37 PM EDT
Civil Twilight 7:20 AM EDT 8:07 PM EDT
Nautical Twilight 6:44 AM EDT 8:42 PM EDT
Astronomical Twilight 6:08 AM EDT 9:18 PM EDT
Moon 2:13 AM EDT 4:49 PM EDT
Length of Visible Light 12h 47m
Length of Day
11h 46m
Waning Crescent, 27% of the Moon is Illuminated
Sep 29
Waning Crescent
Oct 4
New
Oct 11
First Quarter
Oct 18
Full
Oct 26
Last Quarter

Hourly Weather History & Observations

Time (EDT) Temp. Dew Point Humidity Pressure Visibility Wind Dir Wind Speed Gust Speed Precip Events Conditions
12:53 AM 54.0 °F 48.9 °F 83% 29.79 in 10.0 mi West 12.7 mph 21.9 mph N/A   Overcast
1:20 AM 53.6 °F 48.2 °F 82% 29.80 in 10.0 mi West 17.3 mph 27.6 mph N/A   Overcast
1:39 AM 53.6 °F 46.4 °F 77% 29.80 in 10.0 mi West 12.7 mph 23.0 mph N/A   Scattered Clouds
1:53 AM 53.1 °F 46.9 °F 80% 29.80 in 10.0 mi WSW 12.7 mph 24.2 mph N/A   Mostly Cloudy
2:53 AM 51.1 °F 43.0 °F 74% 29.81 in 10.0 mi West 24.2 mph 34.5 mph N/A   Clear
3:53 AM 51.1 °F 43.0 °F 74% 29.82 in 10.0 mi West 24.2 mph 38.0 mph N/A   Clear
4:53 AM 51.1 °F 43.0 °F 74% 29.84 in 10.0 mi WNW 24.2 mph 32.2 mph N/A   Clear
5:53 AM 51.1 °F 43.0 °F 74% 29.87 in 10.0 mi West 16.1 mph 24.2 mph N/A   Clear
6:53 AM 48.9 °F 44.1 °F 83% 29.89 in 10.0 mi West 10.4 mph - N/A   Clear
7:53 AM 46.9 °F 43.0 °F 86% 29.92 in 10.0 mi SW 4.6 mph - N/A   Clear
8:53 AM 48.0 °F 45.0 °F 89% 29.93 in 10.0 mi SSW 3.5 mph - N/A   Clear
9:53 AM 51.1 °F 45.0 °F 80% 29.93 in 10.0 mi SW 4.6 mph - N/A   Clear
10:53 AM 57.0 °F 45.0 °F 64% 29.94 in 10.0 mi West 5.8 mph - N/A   Clear
11:53 AM 60.1 °F 45.0 °F 57% 29.95 in 10.0 mi West 8.1 mph - N/A   Clear
12:53 PM 62.1 °F 45.0 °F 53% 29.94 in 10.0 mi Variable 3.5 mph - N/A   Clear
1:53 PM 66.9 °F 41.0 °F 39% 29.92 in 10.0 mi West 11.5 mph - N/A   Clear
2:53 PM 69.1 °F 39.0 °F 33% 29.91 in 10.0 mi WSW 9.2 mph - N/A   Clear
3:53 PM 69.1 °F 39.9 °F 35% 29.91 in 10.0 mi WSW 6.9 mph - N/A   Partly Cloudy
4:53 PM 68.0 °F 41.0 °F 37% 29.90 in 10.0 mi WNW 8.1 mph - N/A   Clear
5:53 PM 68.0 °F 42.1 °F 39% 29.90 in 10.0 mi West 6.9 mph - N/A   Clear
6:53 PM 66.0 °F 43.0 °F 43% 29.90 in 10.0 mi Calm Calm - N/A   Clear
7:53 PM 55.0 °F 48.0 °F 77% 29.91 in 10.0 mi East 5.8 mph - N/A   Clear
8:53 PM 53.1 °F 48.0 °F 83% 29.91 in 10.0 mi ENE 6.9 mph - N/A   Clear
9:53 PM 51.1 °F 46.9 °F 86% 29.91 in 10.0 mi Calm Calm - N/A   Clear
10:53 PM 55.0 °F 45.0 °F 69% 29.90 in 10.0 mi South 5.8 mph - N/A   Clear
11:53 PM 53.1 °F 44.1 °F 71% 29.91 in 10.0 mi South 4.6 mph - N/A   Clear